GEFSNE_500_meanwind_150.txt.gz
Wind_Speed
11 12 11 10 10 11 11 11 11 11 11 12 12 13 14 14 15 15 16 17 17 19 20 20 20 21 22 22 22 23 23 23 23 23 24 23 24 25
12 12 12 11 11 12 12 12 12 12 13 14 15 16 16 17 17 18 19 19 19 20 21 21 23 23 24 24 24 24 25 26 25 25 26 26 26 26
14 14 14 14 14 13 13 14 14 15 15 16 17 18 19 20 21 22 21 22 22 23 23 24 24 25 25 26 26 26 26 26 27 27 28 28 28 29
16 16 16 16 16 16 15 16 17 17 18 18 19 20 21 22 23 24 24 24 24 25 26 26 27 27 27 28 28 28 28 28 28 29 29 29 29 29
17 18 18 18 18 18 18 19 20 20 20 21 21 22 23 24 24 25 25 26 27 27 27 28 29 29 30 30 30 30 30 30 30 30 30 30 30 30
19 20 20 20 20 20 21 22 22 23 24 24 25 25 26 26 27 27 27 28 29 30 30 30 30 30 31 32 33 33 32 33 33 33 33 33 32 32
21 22 22 23 23 24 24 25 25 26 27 27 28 28 29 30 30 30 31 31 32 33 33 33 33 33 34 34 34 35 35 35 35 35 35 35 35 34
23 24 25 26 26 27 27 28 28 28 29 30 30 31 32 33 33 34 35 35 35 36 36 36 37 36 37 37 38 38 38 38 38 37 37 37 37 36
25 26 27 28 28 29 30 31 31 31 32 33 34 35 35 36 37 37 38 39 39 39 39 39 40 40 40 40 40 41 41 42 41 41 40 40 39 39
28 29 30 30 31 32 32 33 34 35 36 37 38 39 39 40 40 41 41 41 41 41 41 41 41 41 41 42 42 42 43 44 44 44 44 43 42 42
30 31 32 32 33 34 35 35 36 37 39 40 41 42 43 43 44 43 43 42 41 41 42 42 42 42 43 42 43 44 45 46 47 47 46 46 45 44
32 33 34 35 36 37 37 38 39 40 41 43 44 45 46 46 46 45 44 44 43 43 44 45 45 45 44 44 44 45 46 47 47 48 48 47 47 46
34 36 37 38 39 39 40 41 42 43 44 45 46 47 48 48 46 46 46 46 46 45 45 46 47 47 47 46 46 46 47 47 48 48 49 49 49 48
37 38 39 40 40 41 42 44 45 46 47 48 48 48 48 47 47 47 47 47 47 46 45 47 47 47 47 47 47 47 48 49 49 50 50 51 51 50
40 41 41 41 42 43 44 46 47 48 49 49 49 49 49 48 47 48 48 47 47 47 47 47 48 48 48 48 47 48 49 49 50 51 51 52 52 52
42 42 43 43 44 45 46 47 49 50 51 51 50 50 50 48 48 48 48 48 48 47 48 49 50 49 49 49 50 49 49 49 49 51 52 52 53 54
44 44 44 45 46 47 49 50 51 51 51 51 51 51 50 50 50 50 50 50 50 50 50 50 51 50 50 50 50 50 50 49 49 50 52 52 53 54
46 46 47 48 49 50 51 52 52 52 52 52 52 52 51 51 51 51 51 51 51 50 50 50 50 50 49 49 50 50 49 49 49 50 51 52 51 52
48 48 49 50 51 52 53 53 53 53 53 53 52 51 51 51 52 52 52 52 51 50 49 49 49 50 49 48 47 49 49 49 49 48 50 51 51 51
50 50 51 52 53 54 55 55 54 53 53 53 53 52 52 52 52 53 52 51 51 50 49 48 49 49 49 48 47 47 47 48 48 47 48 49 49 50
52 52 53 54 55 55 55 55 54 54 54 54 54 53 53 53 52 52 52 51 50 49 48 46 47 48 48 47 46 45 45 45 45 45 46 47 47 48
54 54 55 56 56 56 56 56 55 55 55 55 55 54 53 53 52 51 50 49 48 47 46 45 45 45 45 43 42 41 41 42 42 42 42 43 43 43
56 56 56 57 57 57 56 56 56 56 56 55 54 54 53 52 50 49 48 48 47 46 45 43 42 41 40 40 39 37 37 39 39 39 38 38 39 38

GEFSNE_500_meanwind_156.txt.gz
Wind_Speed
7 7 7 7 6 6 7 7 7 7 7 8 8 9 10 11 11 12 13 14 14 15 15 16 17 18 18 19 19 20 21 22 23 23 24 24 25 25
8 8 8 7 8 8 8 8 8 8 9 10 11 11 11 12 13 14 15 16 18 18 19 19 20 21 21 22 22 23 23 24 24 24 25 26 26 27
9 9 9 9 9 9 9 9 10 10 11 12 13 13 14 14 15 16 18 19 20 21 22 22 23 23 23 24 25 26 27 27 27 28 27 27 28 29
9 9 10 10 10 11 11 11 11 12 13 13 14 15 16 17 18 19 20 21 21 22 23 24 25 25 26 27 28 28 29 29 30 30 30 30 30 31
11 11 11 11 12 12 13 14 14 14 15 16 17 17 18 19 20 21 21 22 23 25 26 27 28 28 29 30 31 31 32 33 33 34 34 33 33 33
13 13 14 14 14 15 16 16 17 17 18 19 20 20 21 22 22 23 23 25 26 27 28 29 30 31 32 33 33 34 35 35 35 36 37 37 36 35
15 15 16 16 17 18 19 19 20 21 22 22 23 24 24 25 26 26 27 28 29 31 32 33 34 35 36 37 37 37 38 38 38 38 38 39 39 39
17 18 18 19 20 21 22 23 24 25 26 26 26 27 28 29 29 30 31 32 33 35 36 37 38 39 40 40 41 41 41 41 41 40 40 40 41 41
19 20 21 22 23 23 24 26 27 27 28 29 30 31 32 32 33 34 34 35 36 38 39 41 42 43 44 44 44 45 45 44 44 44 43 44 44 43
22 23 23 24 25 27 27 28 29 30 32 33 33 34 35 36 36 37 38 39 40 42 43 44 44 44 45 46 47 47 47 47 46 46 46 46 46 46
24 25 26 27 28 29 30 31 32 33 35 35 36 37 38 38 39 40 41 42 43 44 45 46 46 46 46 47 48 48 49 49 49 48 48 49 49 49
27 28 29 30 31 32 33 34 35 36 37 37 38 39 40 41 42 43 44 44 45 46 48 48 48 48 48 48 48 49 49 50 51 51 51 52 52 52
30 31 32 33 34 35 36 37 38 39 39 40 41 42 43 44 45 46 47 48 49 50 51 51 50 50 49 48 48 49 50 51 52 52 52 53 54 54
33 34 35 37 38 38 39 40 41 41 42 43 44 45 46 46 47 48 49 50 51 52 52 52 51 50 49 49 48 49 50 51 52 52 53 53 54 55
36 37 38 40 40 41 42 42 43 43 44 45 46 46 47 48 49 50 50 51 52 52 52 51 51 49 49 49 48 48 49 50 51 52 53 54 55 56
39 40 41 42 42 43 43 44 45 46 46 47 48 49 50 50 51 51 51 52 52 51 51 51 50 50 49 49 49 48 50 50 51 53 54 55 56 57
42 43 43 44 44 44 45 46 47 48 49 50 50 51 51 52 52 52 52 52 51 51 50 50 51 51 50 50 50 50 50 51 53 54 54 54 55 56
44 44 45 45 46 47 48 49 50 50 51 52 52 53 53 53 53 52 52 52 51 51 51 51 51 51 51 51 51 51 51 51 52 54 55 55 54 55
46 47 48 49 50 50 51 51 52 52 53 53 54 54 54 54 53 53 53 53 53 53 52 52 53 53 53 51 50 51 52 52 53 53 53 53 53 53
49 50 51 52 53 53 53 53 53 54 54 55 55 55 55 55 54 54 54 54 54 54 54 54 54 54 54 52 51 50 51 52 52 51 51 51 52 52
51 52 53 54 55 55 55 55 55 56 56 56 56 56 56 55 55 55 56 55 55 55 54 53 54 54 53 52 50 49 49 50 50 49 49 49 49 49
53 54 55 56 56 56 56 56 56 56 56 56 56 56 56 56 56 56 56 55 55 55 54 54 53 52 51 51 50 48 47 46 46 46 47 46 46 46
55 56 57 57 57 57 57 57 57 57 57 56 56 56 56 56 56 55 55 55 55 54 53 51 50 49 48 48 48 46 45 44 43 42 41 41 41 42

GEFSNE_500_meanwind_162.txt.gz
Wind_Speed
5 4 5 5 4 4 4 4 5 5 6 6 6 6 7 8 9 10 11 12 13 13 15 15 15 16 17 18 18 19 19 19 20 21 22 23 23 24
6 5 6 5 5 6 6 6 6 7 7 8 8 9 10 10 11 13 13 14 14 15 16 17 17 18 19 20 20 21 22 22 23 24 24 25 26 26
7 7 7 7 6 7 7 8 8 8 9 9 10 11 12 12 13 14 15 16 17 18 18 19 20 20 20 21 21 22 23 24 25 27 28 28 28 29
9 9 8 8 8 8 9 9 10 11 11 12 13 14 14 15 16 17 18 18 19 20 21 22 23 24 24 25 25 25 26 26 27 29 29 30 31 31
11 10 10 10 10 10 11 12 13 13 14 15 15 16 17 18 19 20 21 22 22 23 24 25 26 27 28 28 28 28 29 29 30 31 32 33 33 34
13 12 12 12 13 13 14 14 15 16 17 18 18 19 19 21 21 22 22 24 25 26 27 28 30 31 31 32 32 32 32 33 34 34 35 36 37 37
15 15 15 15 15 16 16 17 18 19 20 20 21 22 23 23 24 25 25 26 27 29 30 31 33 34 34 35 35 35 35 35 36 37 38 39 39 40
16 17 17 18 18 19 20 20 21 22 23 23 24 25 26 27 28 28 29 30 31 32 33 34 36 37 37 38 38 39 39 39 40 40 41 41 42 42
18 19 19 20 21 22 23 24 24 25 26 27 27 28 29 30 30 31 32 33 34 35 36 37 39 40 40 41 41 42 42 43 44 44 44 45 46 46
20 21 22 22 23 24 25 26 26 27 28 29 30 31 32 33 33 34 35 36 37 39 40 41 42 43 43 44 45 46 46 47 47 48 48 49 49 50
23 24 24 25 26 26 27 28 29 30 31 32 33 34 35 36 37 38 39 40 41 42 44 44 45 45 46 47 48 49 49 50 51 52 53 54 54 54
26 27 28 28 29 30 31 32 33 33 34 35 37 37 38 39 40 41 43 44 44 45 46 46 46 47 47 48 49 50 51 52 54 54 55 55 55 56
29 30 31 31 32 33 34 35 36 37 38 39 40 41 41 42 43 45 45 46 46 46 47 48 48 49 50 49 50 51 52 53 53 54 54 54 54 55
32 33 33 34 35 36 38 39 39 40 41 42 43 43 44 45 46 47 47 48 48 49 50 51 51 52 52 51 51 51 52 52 53 53 53 53 54 54
35 36 37 38 39 40 41 42 43 43 44 44 45 45 46 47 48 49 50 50 51 51 52 53 53 53 53 53 53 52 52 52 53 54 53 53 53 53
38 39 40 41 42 42 43 44 44 45 46 47 47 48 49 50 51 52 52 52 52 52 53 54 54 54 53 53 53 53 52 52 52 53 54 53 53 54
41 41 42 43 43 44 45 46 46 47 48 49 50 51 52 52 53 54 54 55 54 54 54 55 55 55 55 55 54 54 53 53 52 53 52 52 53 54
42 43 44 45 46 46 47 48 49 50 51 52 53 54 54 55 55 56 57 57 56 56 56 56 57 57 56 55 55 55 54 53 53 54 54 53 52 52
44 45 46 47 48 48 49 50 51 52 53 55 55 55 56 56 57 58 58 58 58 58 57 57 57 57 56 55 54 55 55 54 54 54 54 54 52 52
47 47 48 49 49 50 51 51 53 54 55 56 56 57 58 58 59 59 59 58 58 58 58 57 57 57 57 56 55 55 56 56 56 55 55 54 52 51
49 49 50 51 52 52 53 54 55 56 57 57 58 59 59 59 59 59 59 59 59 59 58 58 58 58 58 58 57 55 55 55 55 55 53 53 52 50
50 51 52 53 54 54 55 56 56 57 57 59 60 60 60 60 60 60 60 60 60 59 58 57 57 57 57 57 56 54 53 52 52 51 51 51 50 49
51 52 53 54 55 55 56 57 58 58 59 60 60 60 60 61 60 60 60 59 59 58 57 56 55 55 54 54 53 52 51 50 49 48 47 47 47 47

GEFSNE_500_meanwind_168.txt.gz
Wind_Speed
4 4 4 4 4 4 4 5 6 6 6 7 8 8 9 10 10 11 12 13 14 14 15 14 14 15 16 16 16 17 17 18 18 18 19 20 21 22
5 6 6 5 6 6 6 6 6 7 7 9 9 10 11 12 12 13 13 14 16 17 16 16 17 17 18 18 19 19 20 19 20 20 20 21 22 23
7 7 7 7 7 7 7 8 8 8 9 10 11 12 13 14 14 15 15 16 17 17 17 18 18 20 20 20 21 21 22 23 23 24 25 25 26 27
8 8 8 8 8 8 9 9 10 10 11 12 13 14 15 15 16 17 17 17 17 18 19 20 21 21 22 22 23 24 25 25 26 27 28 29 30 31
10 10 10 10 10 10 11 11 12 12 13 14 14 15 16 16 17 18 18 19 20 21 21 22 23 24 24 25 26 27 28 28 29 30 31 32 33 34
12 12 12 12 12 13 13 14 14 15 15 16 17 17 18 19 20 20 20 21 22 23 24 25 26 26 27 28 29 30 31 31 32 33 34 35 36 36
13 14 14 14 14 15 16 16 17 18 18 19 19 20 20 21 22 22 23 24 24 25 26 27 28 29 30 31 32 32 33 34 35 36 37 38 38 38
15 16 16 16 17 18 18 19 20 20 21 22 22 22 23 24 25 25 26 27 27 28 29 30 31 32 33 34 35 37 38 38 39 40 41 42 42 42
17 18 18 19 20 20 21 21 22 23 24 24 25 25 26 27 28 28 29 30 31 31 32 33 34 36 36 38 39 41 42 43 44 44 45 45 45 46
19 20 20 21 22 23 23 24 24 25 26 27 27 28 28 29 30 31 32 33 34 35 36 37 38 39 40 41 43 45 46 47 47 48 48 48 49 49
22 22 23 24 25 26 26 27 27 28 28 29 30 31 32 33 34 35 35 36 37 38 39 40 41 42 43 45 46 47 48 49 49 50 51 51 51 52
25 26 27 28 28 29 29 30 30 30 31 32 33 34 35 36 37 38 39 40 40 41 42 43 44 45 45 46 47 48 49 49 50 51 52 52 52 53
27 28 29 30 31 31 32 33 33 34 35 36 36 37 38 39 39 40 41 42 43 43 44 45 46 47 48 48 48 49 49 50 50 51 51 52 53 54
29 30 31 32 32 33 34 35 36 37 38 39 39 39 40 41 42 42 43 44 45 46 46 47 48 49 50 51 51 50 51 52 52 53 53 54 54 55
32 33 34 34 35 36 37 38 39 40 41 41 42 42 43 43 44 45 46 47 48 49 50 51 52 52 53 54 54 54 54 54 55 55 56 56 56 56
34 35 36 37 38 39 40 41 41 42 43 44 44 45 46 46 47 48 49 50 51 51 52 53 54 55 56 57 57 56 56 56 57 57 57 57 56 56
36 37 38 39 40 41 42 42 43 44 45 46 47 48 48 49 50 51 52 52 53 54 55 56 57 57 57 58 57 57 57 57 58 58 58 57 57 57
38 39 40 41 42 43 43 44 46 47 48 49 49 50 51 52 52 53 54 54 55 56 57 57 57 57 58 58 58 58 58 58 58 58 58 58 57 58
40 41 42 43 44 45 46 47 48 49 50 51 52 52 53 54 54 55 55 56 57 58 58 58 59 59 59 58 58 59 59 59 59 59 59 58 58 57
41 42 43 44 45 46 48 49 50 51 51 52 53 53 54 55 55 56 56 57 58 59 59 59 60 61 61 61 60 60 60 60 60 59 58 57 57 56
42 43 44 45 47 48 49 50 51 52 52 53 53 54 54 55 56 57 58 58 59 60 60 60 61 62 62 62 61 60 60 60 60 59 57 56 55 54
44 45 46 47 48 49 50 50 51 52 52 53 54 55 56 57 58 58 59 59 60 60 61 61 62 62 62 62 61 60 59 58 57 57 55 54 53 52
46 47 47 48 49 50 50 51 51 52 53 54 55 56 57 58 58 59 59 60 60 61 61 61 61 61 61 61 60 59 58 56 55 54 52 51 51 50

GEFSNE_500_meanwind_174.txt.gz
Wind_Speed
6 6 5 5 6 6 6 6 6 7 7 7 8 9 9 10 10 11 11 12 12 13 13 13 14 14 14 15 15 15 16 17 18 19 19 18 19 20
6 6 6 6 7 7 8 8 8 9 9 9 10 10 11 11 11 12 12 13 14 14 15 16 17 17 17 17 17 18 18 19 19 20 19 19 20 21
6 6 7 8 7 8 8 9 9 10 10 11 11 11 12 13 13 13 14 15 16 16 17 17 18 18 19 19 19 20 20 20 21 21 21 21 21 23
8 8 8 9 9 9 10 10 10 11 11 12 13 13 14 14 15 15 16 17 17 18 18 19 19 20 20 21 21 22 21 21 22 23 23 23 24 25
10 10 10 10 11 11 12 12 12 12 13 13 14 15 15 16 17 17 18 19 19 19 20 21 22 22 23 23 23 24 24 24 25 26 26 27 27 28
12 12 12 13 13 13 13 14 14 15 15 16 16 17 18 18 19 20 20 20 21 21 21 22 23 24 25 25 26 26 27 28 28 28 29 30 31 31
14 14 14 15 15 15 15 16 17 17 18 19 19 20 20 21 21 22 22 23 23 23 24 24 25 26 27 28 29 29 30 31 31 32 33 34 35 35
16 16 16 17 17 17 18 19 19 20 21 21 22 22 23 23 24 25 25 25 26 26 27 27 28 28 29 31 32 33 34 35 35 36 37 38 39 39
17 18 18 19 19 20 20 21 22 23 24 24 24 25 25 26 27 28 28 29 29 30 31 31 31 32 33 34 35 36 36 37 38 39 40 41 42 43
19 20 21 21 22 22 23 24 25 26 27 27 27 28 28 29 30 31 32 33 34 34 35 35 35 36 37 37 38 39 39 40 41 42 44 45 45 45
22 23 23 24 24 25 26 27 28 29 29 30 31 32 32 33 34 35 36 36 36 37 38 38 38 39 39 40 41 41 42 43 44 44 45 46 46 47
24 25 26 27 27 28 29 29 30 31 32 32 33 34 35 36 37 39 39 39 39 39 39 41 41 42 42 42 43 44 44 45 45 46 47 48 48 49
25 26 27 28 29 30 30 31 32 33 34 34 35 36 38 39 40 40 41 42 42 42 42 43 43 44 44 44 44 45 46 46 47 47 48 49 50 51
27 28 29 30 30 31 32 33 34 35 36 37 37 38 40 40 41 42 42 43 44 44 45 45 46 46 47 47 47 47 48 49 50 50 50 51 52 52
29 30 31 32 33 33 34 35 36 37 38 39 40 41 42 42 43 44 44 44 45 46 47 48 48 49 50 51 51 51 51 52 53 53 54 54 54 55
31 32 33 34 35 36 37 38 39 40 41 41 42 43 44 44 45 45 46 46 47 47 48 50 51 52 52 52 53 53 53 54 55 56 57 57 57 57
33 34 35 36 37 38 39 40 41 41 42 43 44 45 46 46 46 47 48 49 49 50 50 51 52 53 54 54 54 55 56 56 57 59 59 59 59 59
35 36 36 37 38 39 40 41 42 43 44 45 46 46 47 48 48 49 50 51 51 52 53 53 54 54 54 55 56 57 58 59 60 60 61 60 59 60
37 37 38 39 40 40 41 43 43 44 45 46 47 47 48 49 50 50 51 52 53 53 54 55 55 56 56 56 56 58 59 60 60 60 60 60 60 59
38 39 40 41 41 42 43 43 44 45 46 47 47 48 49 49 50 51 53 54 55 55 56 56 57 57 58 58 58 58 59 60 60 59 59 59 59 59
40 41 41 42 42 43 44 45 46 46 47 48 49 49 50 51 52 52 54 55 56 57 57 57 57 58 59 59 59 58 58 59 59 59 59 58 58 57
41 42 42 43 44 45 45 46 47 47 48 49 49 51 52 53 53 54 55 56 56 57 57 57 57 58 59 59 59 59 58 57 58 58 58 58 57 55
42 43 44 44 45 46 47 47 48 49 50 50 51 52 53 54 54 55 56 57 57 57 57 57 57 58 58 58 58 58 57 56 56 56 56 55 55 53

GEFSNE_500_meanwind_180.txt.gz
Wind_Speed
5 5 6 6 6 7 7 7 7 7 7 8 8 9 9 10 10 10 10 10 11 12 13 13 14 14 15 15 16 16 17 18 19 19 19 20 20 21
6 7 7 7 7 8 9 9 9 9 9 9 10 10 10 11 11 11 11 12 13 13 14 15 16 16 17 17 18 19 20 20 21 21 21 22 22 22
9 9 9 9 9 10 10 10 11 11 11 11 11 11 12 12 13 13 14 14 15 15 16 16 17 18 19 20 20 21 21 22 22 23 23 24 25 25
11 11 11 11 11 12 12 13 13 13 13 13 14 14 14 15 15 16 16 16 17 18 18 19 19 20 20 21 22 22 23 24 25 25 25 25 26 27
13 12 12 13 13 14 14 14 15 15 16 16 16 16 17 17 18 18 18 19 19 20 20 20 21 22 22 23 23 24 25 26 26 27 28 28 28 29
14 14 15 15 15 15 16 16 17 17 18 18 18 19 19 20 20 20 21 21 21 22 22 23 23 24 24 25 26 26 27 27 28 28 29 30 31 31
15 16 16 16 16 17 17 18 18 19 20 20 21 21 22 22 22 23 23 24 24 25 25 25 26 27 28 28 29 29 30 30 31 32 32 33 34 34
16 17 17 17 18 19 19 20 20 21 21 22 23 24 24 25 25 26 26 27 27 28 28 29 30 30 32 32 33 33 34 35 35 36 36 37 38 39
19 19 19 20 20 21 21 22 22 23 23 24 25 25 26 27 27 28 29 29 30 31 32 32 33 34 35 36 36 37 38 39 40 40 40 40 41 41
21 21 21 22 22 23 23 23 24 24 25 26 27 27 28 29 29 30 31 31 32 33 34 35 36 37 37 38 40 40 41 42 42 42 43 43 43 43
22 22 22 23 24 24 25 25 26 27 28 28 29 30 31 32 32 33 33 34 34 35 37 38 38 39 40 41 41 42 43 43 44 44 44 45 45 45
23 23 23 24 25 26 27 27 28 29 30 30 31 32 33 34 34 35 36 37 37 38 39 40 41 42 42 42 43 43 44 45 45 46 46 47 47 47
24 25 25 26 28 28 28 29 30 31 31 32 33 34 35 36 37 38 39 40 40 41 42 43 43 44 44 43 43 45 46 46 47 47 48 48 49 49
26 26 27 29 30 30 30 31 32 33 33 34 35 36 37 38 40 41 42 43 44 44 45 46 46 46 46 46 46 46 47 48 49 49 50 50 51 51
27 28 29 30 31 32 32 33 34 34 35 36 37 38 39 41 42 43 44 46 46 47 47 48 48 48 49 49 50 50 50 50 51 51 52 52 52 53
29 30 31 32 33 34 34 35 35 36 37 38 39 40 41 42 44 45 46 47 48 47 48 49 50 51 52 52 52 52 53 53 53 53 54 53 53 54
30 31 32 33 34 35 36 37 38 38 39 40 41 41 42 43 45 46 47 48 48 48 49 50 51 53 54 54 55 55 55 55 55 55 55 54 54 55
32 32 33 34 35 36 37 37 38 39 40 41 42 43 44 45 46 47 47 48 49 50 51 52 53 54 54 55 56 56 55 55 55 55 56 56 55 56
33 33 35 35 36 37 38 39 40 41 42 42 43 44 45 46 47 47 48 49 50 51 53 54 55 56 56 55 54 56 56 56 56 56 57 57 57 57
34 35 36 37 38 39 40 41 41 42 43 44 45 46 47 48 48 48 49 50 51 53 54 55 56 56 57 56 55 55 57 58 58 57 57 58 59 59
36 36 37 38 39 40 41 42 42 44 44 45 46 47 49 49 49 50 51 52 53 54 54 55 56 56 57 57 56 56 57 58 59 59 59 58 58 58
37 38 39 40 40 41 42 43 44 45 46 46 47 48 50 50 51 51 52 54 54 55 55 55 56 56 56 57 57 57 57 57 58 58 59 59 59 57
39 40 41 41 42 43 44 45 46 46 47 48 48 49 50 51 52 53 54 55 55 55 56 56 56 56 56 57 56 56 55 55 55 56 56 57 57 57

GEFSNE_500_meanwind_186.txt.gz
Wind_Speed
6 7 7 7 8 8 8 9 10 10 11 11 12 12 12 12 13 13 13 13 14 14 14 14 15 15 16 16 16 18 19 20 20 21 22 23 23 23
8 9 9 9 9 9 10 11 11 12 12 13 14 13 13 13 14 14 15 15 15 15 16 16 16 17 17 18 18 19 19 20 21 22 23 24 25 25
10 10 11 11 11 12 12 13 14 14 15 14 15 15 15 15 16 16 16 17 17 17 18 18 19 19 19 20 20 21 22 22 23 23 24 25 26 27
11 12 12 13 14 15 15 15 16 16 17 16 16 16 17 18 18 18 19 19 19 20 20 21 21 21 22 22 22 23 23 23 24 25 25 26 27 29
13 14 14 15 15 16 17 17 17 18 18 18 18 19 19 19 19 20 21 21 22 22 22 22 22 22 23 23 23 24 25 25 26 27 28 28 29 30
15 16 16 17 17 17 18 18 18 19 19 19 20 20 21 22 22 22 23 23 24 24 24 25 25 25 25 25 26 27 27 28 28 29 29 30 31 31
18 18 18 18 18 18 19 19 20 20 21 21 21 22 23 24 24 25 25 25 26 26 27 27 27 27 28 28 29 29 29 30 31 31 32 32 33 34
19 19 20 20 19 19 20 21 21 22 22 22 23 23 24 25 26 27 27 27 28 28 29 29 30 31 31 32 32 32 33 33 34 34 35 36 36 37
21 21 21 21 21 21 22 22 23 23 24 24 25 25 26 27 28 29 29 30 30 30 31 31 33 34 35 35 35 36 36 37 37 38 38 39 40 40
22 22 22 22 22 23 24 24 24 25 25 26 26 27 28 29 30 31 32 32 33 34 34 34 35 36 37 38 39 39 40 40 41 42 42 42 43 43
22 22 22 23 23 24 25 25 26 27 27 28 28 29 31 32 33 33 34 35 36 36 37 37 38 38 39 40 41 42 43 44 44 45 45 45 45 45
23 23 24 24 25 26 26 27 28 29 30 30 31 32 33 34 35 36 37 38 38 39 39 40 40 41 41 42 43 44 45 46 47 47 47 47 47 47
24 24 25 26 27 28 28 29 30 31 31 32 33 34 35 36 37 38 38 39 40 41 42 43 43 44 44 44 44 46 47 48 48 49 49 49 49 49
25 26 26 28 29 30 30 31 32 32 33 34 35 36 37 37 38 39 39 41 42 43 44 45 45 46 47 47 47 47 48 49 50 50 51 50 51 51
26 27 28 29 30 31 32 32 33 34 35 36 37 37 37 38 39 40 41 42 43 45 46 47 48 48 49 49 49 49 49 50 51 51 51 52 52 53
28 29 29 30 31 32 33 34 35 36 37 37 37 37 38 39 40 41 43 44 45 45 46 47 48 49 50 50 51 51 51 51 51 51 52 52 53 53
30 30 30 31 32 33 34 35 36 37 37 38 38 39 40 41 42 43 44 45 45 45 46 47 49 50 51 52 52 52 52 51 52 52 52 52 52 52
29 30 31 32 33 34 35 36 37 38 38 38 39 40 41 41 42 43 44 45 45 46 47 48 49 50 51 51 52 52 52 52 53 53 53 53 52 52
30 31 33 34 35 36 37 38 38 39 39 40 40 41 42 43 43 44 44 45 47 48 48 50 51 52 52 51 51 53 54 54 54 54 54 54 53 53
32 32 34 35 36 37 38 39 40 40 41 42 42 43 44 44 45 46 46 47 48 49 50 51 52 53 53 52 51 51 53 54 54 54 54 54 53 53
33 33 35 36 37 38 39 40 41 42 42 42 43 43 44 45 46 46 48 49 50 50 51 52 53 53 53 53 52 52 52 53 54 53 52 52 51 51
34 35 36 37 38 39 40 41 42 43 43 43 44 44 45 46 47 48 49 50 50 51 52 52 53 53 53 52 52 51 51 51 51 51 50 50 50 50
36 37 38 39 40 40 41 42 43 43 43 44 45 45 46 47 48 49 50 50 51 51 52 52 52 52 52 52 51 51 50 50 49 48 48 49 51 51

GEFSNE_500_meanwind_192.txt.gz
Wind_Speed
7 7 7 7 8 9 9 10 10 10 11 11 12 13 13 14 14 15 15 16 16 17 17 17 18 18 19 19 20 20 21 22 22 23 24 24 24 25
9 9 9 10 10 10 11 11 11 12 13 13 14 15 15 15 16 16 17 17 18 18 18 18 18 19 20 21 21 21 21 22 23 23 24 25 25 25
9 10 10 10 11 11 12 13 13 14 14 15 16 16 16 17 17 18 18 19 19 19 20 20 21 21 21 22 22 22 23 24 25 26 26 26 26 27
11 11 11 11 11 12 13 14 14 15 16 17 17 18 18 18 19 19 20 20 20 21 22 22 23 23 24 24 24 25 25 25 26 26 27 27 28 28
11 11 12 12 13 14 15 15 16 17 17 18 18 19 19 20 20 21 21 22 22 23 24 25 25 26 26 27 27 27 27 27 28 28 28 29 30 30
13 13 14 14 15 16 17 17 18 18 19 19 20 20 21 22 22 23 23 24 24 25 26 27 27 28 29 29 29 30 30 30 30 30 31 31 32 32
15 15 16 17 17 18 18 19 19 20 20 21 22 23 23 24 25 25 26 26 27 27 28 29 29 29 30 30 31 31 32 32 32 33 33 34 34 34
17 17 18 18 19 19 20 20 20 21 22 23 24 25 25 26 27 27 28 28 29 29 30 31 31 31 32 32 33 34 34 35 35 35 36 36 37 37
18 18 19 20 20 21 21 22 22 23 24 25 26 26 27 28 28 29 30 30 31 32 33 33 33 34 34 35 36 36 36 37 37 38 38 39 39 40
19 20 21 21 21 21 22 23 23 24 26 27 27 28 28 29 29 30 31 32 33 34 35 35 36 36 36 38 38 38 38 39 39 40 40 41 42 42
20 21 21 21 22 23 24 25 25 26 28 28 29 30 31 31 31 32 33 33 34 35 36 37 37 38 38 39 40 40 41 42 42 42 43 43 44 44
21 21 22 23 23 24 25 26 27 28 29 30 30 31 32 32 33 33 34 35 36 37 38 39 39 39 39 39 40 41 42 43 44 45 45 46 46 47
22 23 23 24 24 25 26 27 28 30 30 31 32 32 33 34 35 35 36 37 38 39 39 40 40 41 41 41 41 42 43 44 45 46 47 48 48 49
23 24 24 25 26 27 28 29 30 30 31 32 33 34 35 35 35 36 36 37 38 38 39 40 41 42 43 43 44 44 45 47 47 48 48 49 49 49
25 25 26 27 28 28 29 30 31 31 32 33 34 35 35 35 35 35 35 36 37 38 39 41 42 43 45 45 45 46 47 47 48 48 48 48 49 49
26 27 28 29 29 30 31 31 32 32 33 34 35 36 36 35 35 36 37 38 38 39 40 41 42 43 44 45 47 47 48 48 47 47 47 47 48 48
27 28 28 29 30 31 31 32 33 34 35 36 36 36 36 36 36 37 38 38 39 40 40 41 42 43 45 46 47 48 48 48 48 47 47 47 47 47
28 28 28 29 30 31 31 32 34 35 36 37 37 37 37 37 37 38 38 40 41 41 42 43 44 45 46 47 49 49 49 48 48 48 48 47 47 48
29 29 29 30 31 31 32 33 34 35 36 37 37 37 37 38 38 39 40 41 41 42 43 45 46 47 47 48 48 49 48 48 48 47 47 48 49 49
29 30 30 31 32 32 33 34 35 37 37 38 38 38 38 39 40 41 42 42 43 44 45 46 47 48 48 48 48 48 47 47 47 47 47 47 48 49
30 31 31 32 33 34 35 36 37 38 38 39 39 39 40 40 41 42 43 43 44 45 46 46 47 48 49 48 47 47 47 47 47 46 46 46 47 47
31 32 32 33 34 35 36 38 38 39 40 40 40 41 41 42 42 43 43 44 45 46 46 47 48 48 48 47 47 46 46 46 45 45 45 45 46 45
32 33 34 35 36 37 38 39 40 41 41 41 41 41 42 42 43 43 44 45 45 46 47 47 47 47 47 46 46 45 45 45 44 44 45 45 45 45

GEFSNE_500_meanwind_198.txt.gz
Wind_Speed
7 8 8 8 9 9 9 10 10 11 11 12 13 13 14 14 15 15 16 16 17 17 18 19 19 20 21 21 21 22 22 22 21 21 22 23 24 24
8 8 9 9 9 10 10 11 11 12 12 13 14 14 15 15 16 16 17 17 18 19 20 20 21 21 22 22 22 23 23 23 22 23 24 24 25 26
9 9 9 10 10 11 12 12 13 13 14 14 15 15 16 17 18 18 19 19 19 20 21 22 22 23 24 24 24 24 24 25 25 25 25 26 27 28
10 10 10 11 12 12 13 14 14 14 15 16 16 17 18 19 20 20 21 22 22 23 23 23 24 25 25 25 26 26 26 26 27 27 27 28 29 30
11 12 12 12 13 14 14 15 15 16 17 18 18 19 20 20 21 22 23 24 24 25 25 26 26 26 27 27 27 27 28 28 29 29 30 30 31 32
13 13 14 14 15 15 16 16 17 18 19 19 20 20 21 22 23 24 24 25 26 27 27 28 28 28 29 29 29 30 30 30 30 31 32 32 33 33
14 15 15 16 16 16 17 18 18 19 20 20 21 22 23 24 24 25 26 27 28 29 29 29 30 30 30 30 31 31 32 32 32 33 33 34 34 35
15 15 16 16 17 17 18 19 19 20 21 22 22 23 24 25 26 27 28 28 29 30 30 31 31 32 32 32 33 33 33 33 34 34 35 36 36 37
15 16 16 17 17 18 19 20 21 22 23 24 24 25 26 27 28 29 29 30 31 31 32 32 32 32 33 33 33 34 34 35 36 37 37 37 38 38
17 18 18 18 19 20 20 22 23 24 25 25 26 27 28 29 30 30 31 31 31 32 33 33 33 33 34 35 35 36 37 38 38 39 40 40 41 41
18 19 19 20 21 22 23 24 24 25 26 27 28 29 29 30 31 32 32 32 32 33 34 35 35 35 36 37 37 38 38 39 40 41 42 43 43 43
19 20 21 22 23 23 24 24 25 26 27 28 28 29 30 31 32 33 33 33 34 34 35 36 36 36 36 37 38 39 40 41 42 43 43 43 43 43
20 21 22 23 24 24 25 26 27 28 28 29 29 30 31 32 33 34 34 35 36 36 36 36 36 37 37 37 38 40 41 42 43 43 43 43 43 43
21 22 22 24 25 26 27 28 28 29 30 30 31 31 32 33 34 34 35 36 37 37 37 37 38 38 39 39 39 40 41 42 42 42 43 43 43 42
22 23 24 25 26 27 28 28 29 30 31 31 31 32 33 34 35 36 36 37 37 37 38 39 39 40 40 41 41 40 41 41 41 41 41 42 42 42
23 24 25 26 27 28 28 29 30 31 31 32 33 34 35 36 36 37 37 37 38 39 40 40 40 41 41 41 42 42 43 42 41 41 41 41 41 42
25 25 26 27 28 28 29 29 30 31 32 33 34 35 36 36 36 37 38 38 39 39 39 40 40 41 42 42 43 43 43 43 43 42 41 41 41 42
26 27 28 29 30 30 30 31 31 33 33 34 35 35 36 37 37 37 38 39 40 39 39 40 41 41 42 43 44 44 43 43 42 42 41 41 42 43
28 28 29 30 30 31 32 32 33 33 34 35 36 36 37 37 38 38 39 39 40 40 40 41 41 42 42 42 42 44 43 42 42 42 42 42 42 42
29 29 30 31 32 32 33 33 34 34 35 36 37 37 38 38 39 40 41 41 41 40 41 42 42 43 43 43 43 44 44 43 42 42 42 43 43 43
31 31 32 32 33 33 34 34 35 35 36 37 37 38 39 40 40 41 41 42 42 42 42 43 43 44 44 44 44 43 42 43 42 42 42 42 42 42
32 33 34 34 35 35 35 36 36 37 38 38 39 40 41 42 42 42 42 42 42 42 42 43 43 44 44 44 44 43 42 42 43 43 42 42 41 40
33 34 35 36 36 37 37 37 38 39 40 40 41 41 42 43 43 43 43 43 43 44 44 44 44 44 44 44 44 43 42 41 41 41 41 41 41 40

GEFSNE_500_meanwind_204.txt.gz
Wind_Speed
6 7 7 7 8 8 8 8 8 8 9 10 10 11 11 12 13 13 14 14 15 16 17 18 18 19 20 22 22 23 23 24 25 25 24 24 24 24
7 7 8 8 8 9 9 10 10 10 10 11 11 12 13 14 14 15 16 17 17 18 18 19 20 21 22 22 23 24 24 24 25 26 26 26 26 26
7 8 8 9 9 10 10 11 11 11 11 12 12 13 14 15 16 17 18 19 19 20 20 21 22 23 23 24 24 24 25 25 25 26 27 27 27 27
9 9 9 10 10 10 11 11 11 11 12 13 13 14 15 16 17 18 19 20 20 21 22 23 24 24 25 25 25 25 26 26 26 27 27 28 28 29
10 11 11 11 11 11 11 12 12 12 13 14 15 15 16 17 18 19 20 21 22 23 23 24 25 26 26 26 27 27 27 27 27 27 28 29 30 30
12 12 11 11 11 12 12 13 13 13 14 15 16 17 18 19 20 21 22 23 24 24 25 26 26 27 27 27 27 28 28 28 29 30 30 31 31 32
12 11 11 12 12 12 13 13 14 14 15 16 18 19 20 21 22 22 23 24 25 26 27 27 27 27 28 28 29 29 30 30 31 32 33 33 34 35
11 12 12 12 13 14 14 15 15 16 17 18 19 21 22 22 23 24 24 25 26 27 28 28 28 29 29 30 31 31 32 32 33 34 34 35 35 36
12 12 13 14 14 15 16 17 18 18 19 21 21 22 23 23 24 25 25 26 27 29 29 30 30 31 31 32 33 33 34 35 35 35 36 37 37 38
13 13 14 15 16 16 17 18 19 20 21 22 22 23 23 24 25 25 26 27 29 30 31 31 32 33 33 34 35 35 36 37 38 38 38 39 39 40
14 14 15 16 17 17 18 19 20 21 21 22 23 23 24 25 25 27 28 29 30 31 32 32 33 34 34 35 36 37 38 39 39 39 39 39 40 40
16 16 17 18 18 19 20 21 21 22 22 23 24 25 26 26 28 28 29 30 31 32 34 34 34 35 35 36 37 39 40 40 40 40 40 40 41 41
17 18 19 19 20 21 21 22 22 23 24 24 25 26 27 28 30 31 32 32 33 34 35 36 36 37 38 38 39 40 40 40 40 41 41 41 41 42
19 19 20 21 21 22 22 22 23 24 25 26 26 28 29 30 31 32 33 34 35 36 37 37 38 38 38 39 40 40 41 41 41 41 41 42 42 42
20 20 21 21 22 23 23 24 25 26 26 27 28 29 31 32 33 34 35 36 36 37 38 39 39 40 40 40 41 41 41 41 41 41 42 42 42 42
21 21 22 23 24 24 25 26 26 27 28 29 30 31 32 33 34 35 36 37 37 38 39 40 40 41 41 42 42 41 41 41 42 42 43 43 44 44
23 23 24 25 26 27 27 28 29 29 30 31 32 33 34 35 36 37 38 38 39 39 40 41 41 41 42 43 43 42 42 42 43 44 44 44 43 43
25 25 26 26 27 28 29 30 30 31 32 33 34 35 36 37 37 38 39 39 40 40 40 41 42 42 43 44 43 43 43 43 44 44 44 43 42 42
26 27 27 28 29 31 31 32 32 33 34 34 35 36 37 38 38 39 39 40 41 41 41 42 42 43 44 43 43 43 43 43 43 43 43 43 42 42
28 29 29 30 31 33 33 33 34 34 35 36 37 38 39 40 40 40 40 41 42 42 42 42 43 44 44 43 41 42 43 43 42 42 42 42 42 42
31 31 32 33 33 33 34 35 35 36 37 37 38 39 41 41 41 41 42 42 42 42 42 42 43 44 43 43 42 42 43 43 43 42 42 41 42 42
33 33 34 34 35 35 35 36 36 37 38 39 40 41 41 42 41 42 42 42 42 42 43 43 43 43 43 43 43 43 44 44 44 45 44 44 43 42
35 35 36 36 37 37 37 38 38 39 40 41 41 41 42 42 41 41 41 41 42 43 43 44 44 44 45 45 45 45 44 45 45 45 46 45 45 43

GEFSNE_500_meanwind_210.txt.gz
Wind_Speed
8 8 8 8 8 8 9 9 9 10 10 10 10 10 10 11 12 13 14 15 15 16 16 17 17 18 19 19 20 21 22 23 23 24 25 25 25 25
8 8 9 9 9 10 10 10 10 11 11 10 10 11 11 12 13 14 14 15 16 17 18 18 18 19 19 20 21 22 23 23 24 25 24 25 26 27
9 9 10 10 10 10 11 11 11 11 11 11 12 12 13 14 14 15 16 17 17 18 18 19 19 20 21 22 23 23 24 25 26 26 27 26 26 27
10 10 10 10 11 11 11 11 11 11 12 12 12 13 14 15 16 16 17 18 18 19 20 20 21 22 23 24 24 25 26 26 27 27 27 27 27 28
10 11 11 11 11 11 11 11 12 12 13 14 14 15 16 17 18 19 20 20 20 21 22 22 23 24 25 25 26 27 27 28 28 28 29 29 30 30
10 11 11 11 11 11 12 12 13 14 15 15 16 17 18 19 20 20 21 22 23 23 24 24 25 26 26 27 28 28 28 29 29 30 30 31 31 32
11 11 11 11 12 12 13 14 14 15 16 17 18 18 19 20 20 21 22 23 24 24 25 26 27 28 28 29 29 29 30 30 30 31 32 32 33 33
12 12 13 13 13 14 14 15 16 16 17 18 19 20 20 21 22 22 23 24 25 26 26 27 28 28 29 30 31 31 31 32 32 33 34 34 34 34
13 14 14 14 14 15 16 16 17 18 19 20 20 21 21 22 23 24 25 26 27 27 27 28 29 29 30 31 32 33 34 34 35 35 36 36 36 36
15 15 15 16 16 17 17 17 18 19 20 21 22 22 23 24 25 26 27 27 28 29 29 30 31 32 33 33 34 34 35 36 37 37 37 37 38 38
16 16 17 17 18 18 19 19 20 21 22 23 23 24 24 25 26 27 28 29 29 30 31 32 32 33 34 35 36 36 37 38 38 38 38 38 38 39
17 18 18 18 18 19 20 20 21 22 23 24 25 25 26 26 27 28 29 30 30 31 32 33 34 35 35 36 38 38 39 39 39 38 38 38 39 40
19 19 20 20 20 21 22 22 23 24 24 25 25 26 27 27 28 29 30 31 31 33 34 35 35 37 37 38 38 39 39 39 39 40 40 40 40 40
20 21 21 22 22 23 23 24 24 25 25 26 27 28 28 29 30 31 31 32 33 35 36 37 37 38 38 38 38 39 40 40 40 41 41 41 41 41
22 23 23 23 23 24 24 25 26 26 27 28 29 29 30 31 32 33 33 34 35 36 37 38 38 38 39 40 40 41 41 42 43 42 42 41 41 41
23 24 24 24 25 25 26 26 27 28 29 30 30 31 32 33 34 35 36 36 37 37 38 38 38 39 40 41 42 42 43 44 44 43 43 43 42 42
25 25 25 26 26 27 28 28 29 30 31 32 33 34 34 35 36 37 38 38 38 38 38 39 39 40 41 42 43 44 44 44 43 43 43 42 42 41
27 27 27 27 28 29 30 30 31 32 33 34 35 36 36 37 37 38 39 39 39 39 39 40 41 42 43 44 44 44 43 43 43 42 42 42 41 41
29 29 29 30 30 31 32 33 33 34 35 36 37 37 37 38 39 39 39 39 39 40 41 41 42 43 44 44 44 43 42 42 42 42 42 41 41 41
30 31 31 32 32 33 34 34 35 36 37 37 38 38 38 39 40 40 40 40 41 42 42 42 43 44 44 44 43 43 43 42 42 42 42 41 41 42
32 32 33 33 34 34 35 36 37 38 38 38 38 39 39 40 41 41 41 41 42 42 42 43 43 44 44 44 43 43 43 44 44 43 43 42 42 43
32 33 33 34 34 35 36 37 38 38 38 39 39 40 41 42 42 41 41 42 42 43 43 43 43 44 45 45 44 44 44 44 45 45 44 44 44 43
33 33 34 34 35 36 36 37 38 38 39 39 40 41 42 42 42 42 43 43 43 43 43 43 43 44 45 44 44 44 44 44 44 44 44 44 44 44

GEFSNE_500_meanwind_216.txt.gz
Wind_Speed
7 7 7 7 7 7 8 8 8 8 8 8 9 10 11 12 13 13 14 15 15 16 16 17 18 19 19 20 21 21 22 22 23 24 24 25 25 26
8 8 8 8 8 8 8 8 8 8 8 9 9 10 11 12 13 13 14 15 15 16 17 17 18 20 20 21 21 22 23 23 24 25 26 27 27 27
8 8 8 9 9 9 9 8 8 9 9 10 10 11 12 13 14 14 14 15 16 17 18 18 20 20 21 22 22 23 23 24 25 26 27 28 29 29
8 8 8 8 9 9 9 9 9 9 10 11 12 12 13 14 14 15 16 17 18 19 20 21 21 22 22 23 23 24 25 25 26 27 28 29 30 30
8 8 9 9 8 9 9 9 10 10 11 12 13 14 14 15 16 17 18 19 19 20 21 22 23 23 23 24 25 26 26 27 28 28 29 29 30 31
8 8 8 8 9 10 10 10 11 12 13 14 14 15 16 17 18 19 20 20 21 22 23 23 23 24 24 25 26 26 27 28 29 30 30 31 32 33
9 9 10 10 10 11 12 12 13 14 15 15 16 17 17 18 19 20 21 22 23 23 24 24 25 25 26 26 27 28 29 30 30 31 32 33 33 34
10 10 10 11 11 12 14 15 15 16 16 17 18 19 20 20 21 22 23 24 24 25 26 26 27 27 27 27 28 29 30 31 32 32 33 34 34 35
12 12 13 13 14 14 15 16 17 17 18 18 19 20 22 22 23 24 25 25 26 27 27 27 28 28 29 29 30 31 32 32 33 34 35 35 36 36
14 14 15 15 15 16 17 17 18 19 19 20 21 22 23 23 24 25 26 27 27 27 28 28 29 30 31 31 32 32 33 34 34 35 36 36 36 37
16 16 16 17 17 18 19 19 20 20 20 21 22 23 24 25 26 27 27 28 28 29 29 29 30 31 32 33 33 34 35 35 35 36 36 37 38 38
17 18 19 19 19 20 20 21 21 22 23 23 24 24 25 26 27 28 29 29 29 29 30 31 32 33 33 33 34 35 36 36 37 37 38 39 39 39
19 20 20 21 22 22 22 22 22 23 24 25 25 26 27 27 28 29 29 30 31 31 32 33 33 34 35 35 35 36 37 38 38 39 39 40 40 39
20 21 22 23 23 23 23 24 24 25 26 26 27 28 28 29 29 30 30 31 32 33 33 34 35 35 36 36 37 37 38 39 39 40 40 40 40 39
22 23 24 24 24 25 25 26 27 27 28 28 29 29 30 31 31 31 31 32 33 34 35 35 36 36 37 38 38 38 38 39 40 40 40 40 40 39
23 24 25 26 26 27 27 27 28 29 29 30 30 31 31 32 32 33 33 34 35 35 35 36 36 37 38 39 39 39 39 40 40 40 40 40 40 40
25 26 27 28 28 28 28 29 30 30 30 31 31 32 32 33 33 34 35 36 37 36 36 37 38 38 39 40 40 40 41 41 41 41 41 40 40 41
28 28 29 29 29 29 30 30 31 31 31 32 33 33 34 34 35 36 37 37 37 37 38 39 39 40 41 41 42 42 42 42 41 41 40 40 40 41
29 29 29 29 30 30 30 31 31 32 32 33 34 34 35 36 36 37 37 37 38 39 39 40 40 41 42 42 42 43 43 43 42 41 41 41 41 41
29 29 30 30 30 31 31 32 32 33 34 34 35 35 36 37 37 37 38 38 39 39 40 40 41 42 42 43 43 42 43 42 41 41 41 42 41 41
30 30 30 30 31 31 32 33 34 34 35 35 36 37 37 37 37 38 39 39 39 40 40 40 42 42 43 43 43 42 41 41 41 40 41 42 41 40
31 31 31 31 32 32 33 34 35 35 36 37 37 37 37 38 38 39 39 39 39 40 40 41 42 43 43 44 43 42 41 41 40 40 41 41 40 39
31 31 31 32 32 33 34 35 36 36 37 38 38 38 38 38 39 39 39 40 40 41 41 42 43 43 43 43 42 41 41 41 40 40 40 39 38 39

GEFSNE_500_meanwind_222.txt.gz
Wind_Speed
6 7 7 7 8 9 9 9 9 10 10 10 10 10 10 11 12 13 14 14 15 16 16 17 18 19 19 19 19 19 20 21 21 22 22 23 23 24
7 7 8 8 8 9 10 10 10 10 10 10 11 11 12 12 13 14 14 15 15 16 17 18 18 19 19 19 20 20 21 22 22 22 23 23 24 25
7 8 8 8 9 9 9 9 9 9 10 11 12 12 13 13 13 14 14 15 16 17 18 19 19 20 20 20 21 21 22 22 23 23 24 24 25 26
8 8 8 9 9 9 9 10 10 11 11 12 13 13 13 14 14 15 15 16 18 18 19 20 21 21 22 22 23 23 23 24 24 25 26 27 27 28
8 8 9 9 10 10 10 11 11 12 13 14 14 14 14 15 16 16 17 18 19 20 21 21 22 23 24 24 24 24 24 25 26 27 28 29 29 30
9 9 10 10 11 11 11 11 12 13 14 15 15 16 16 17 18 19 19 20 21 22 23 23 24 24 25 25 25 25 26 27 28 29 29 30 30 31
11 11 12 12 12 12 12 12 13 14 15 16 17 18 18 19 21 21 21 22 23 23 24 25 25 25 25 26 26 27 27 28 29 29 30 31 32 32
12 13 13 13 13 13 13 14 15 16 16 17 18 19 20 21 22 23 23 23 24 25 25 25 26 26 26 27 27 28 29 30 30 31 32 32 33 32
14 14 14 14 14 14 15 16 17 18 18 19 20 21 21 22 23 24 24 25 25 26 26 26 27 28 28 29 29 30 31 31 32 33 33 33 33 33
14 15 15 16 16 17 17 18 18 19 20 20 21 22 22 23 24 25 25 26 26 27 28 28 28 29 29 30 31 32 33 33 33 33 34 34 33 33
16 16 17 17 18 19 20 20 20 21 22 23 23 24 25 26 26 26 27 27 28 28 29 29 29 30 31 32 32 33 34 34 34 35 35 34 34 35
17 17 18 18 19 20 21 21 22 23 24 25 25 26 27 27 28 28 28 29 29 29 29 30 30 32 32 33 33 33 34 34 35 35 35 35 35 36
17 18 19 20 21 21 23 24 24 25 26 26 27 27 28 28 29 29 29 30 30 30 30 31 31 33 34 34 34 34 34 35 35 36 36 36 36 37
20 20 21 22 23 24 25 26 26 27 27 28 28 29 29 29 29 30 30 30 31 31 31 32 33 34 35 35 35 34 34 34 35 36 36 37 37 38
22 23 24 25 25 26 27 27 27 28 29 29 29 29 29 29 30 30 31 31 32 32 32 33 34 35 35 35 35 34 34 34 35 35 36 36 37 38
24 25 26 26 27 28 28 29 29 30 30 30 30 30 30 30 31 31 32 31 32 32 33 34 35 35 35 35 35 35 35 35 35 35 36 37 38 39
26 26 27 28 28 28 29 29 30 30 30 31 31 31 31 32 32 33 33 33 33 34 35 35 36 35 36 36 36 36 36 36 36 37 37 37 38 39
28 28 28 29 29 29 30 30 30 30 31 31 32 32 32 32 33 33 34 34 35 35 36 36 36 36 37 37 37 37 37 38 38 39 39 39 38 38
29 29 29 29 29 30 30 30 30 31 32 32 33 33 33 33 34 35 36 36 36 36 36 37 38 38 38 37 37 38 39 39 40 40 40 39 39 38
30 30 30 30 30 30 30 30 31 32 32 33 33 33 34 35 36 36 37 37 37 37 37 38 38 38 38 38 38 38 39 40 40 39 39 38 38 38
30 30 30 31 31 31 31 31 32 33 33 34 34 34 35 36 37 38 37 37 37 37 37 37 38 38 38 38 38 38 39 39 39 39 38 38 38 37
30 30 31 31 31 31 32 32 33 34 34 35 35 36 37 38 38 38 37 37 37 37 37 37 37 37 37 38 38 38 38 38 39 38 38 38 38 37
31 32 32 32 32 32 33 33 34 34 35 35 36 37 37 37 37 37 37 37 37 38 38 37 37 37 37 38 38 38 38 38 38 38 38 38 38 37

GEFSNE_500_meanwind_228.txt.gz
Wind_Speed
5 6 6 6 7 7 8 9 9 9 9 9 10 11 11 11 12 12 13 14 14 14 15 15 16 17 18 18 19 19 19 20 20 20 20 21 22 23
7 7 6 7 7 8 9 9 9 9 10 10 10 11 11 11 12 13 13 14 14 15 15 16 17 17 19 19 20 20 21 21 21 21 22 22 23 24
7 7 7 7 8 8 9 9 10 10 10 11 11 11 12 13 13 14 15 15 16 16 17 18 19 19 20 21 21 22 22 23 23 23 24 24 25 26
8 8 8 8 9 9 9 10 10 11 11 12 12 13 14 15 15 16 16 16 17 18 19 20 20 21 22 22 23 23 24 24 24 25 25 26 27 27
8 8 8 9 9 10 10 11 11 11 12 13 14 15 16 16 16 17 17 18 19 20 20 21 22 22 23 24 24 25 25 25 26 26 26 27 28 28
9 9 10 10 10 11 11 11 12 12 13 14 15 16 17 17 18 19 19 20 21 21 22 23 23 24 24 25 25 26 26 27 27 28 28 29 30 30
9 10 11 11 11 11 12 13 13 14 15 15 16 17 18 19 20 21 21 22 22 23 24 24 25 25 25 26 27 28 28 29 29 29 30 30 31 31
10 11 12 12 12 13 14 14 14 15 16 17 18 19 20 20 21 22 23 23 24 24 25 26 26 27 27 27 28 29 29 30 30 31 31 32 32 32
12 12 13 13 14 14 15 16 16 17 18 19 19 20 21 21 22 23 24 25 26 27 28 28 28 28 28 29 29 29 30 31 32 32 33 33 33 33
14 14 14 14 15 16 16 17 18 19 19 19 20 21 22 22 24 25 25 26 27 28 28 29 29 29 29 29 29 30 31 31 32 32 33 33 33 33
15 15 15 15 16 16 17 18 19 20 21 21 22 23 23 24 25 26 26 27 28 29 29 30 29 30 30 30 31 31 32 32 32 32 32 33 32 33
16 16 16 17 17 18 19 20 21 22 23 23 24 24 24 25 26 27 27 28 29 29 29 30 31 31 31 31 31 32 32 32 32 32 32 32 33 33
18 18 18 18 19 20 20 21 22 23 24 24 25 25 26 26 27 27 28 28 29 29 30 31 31 31 32 32 32 32 32 32 32 32 33 33 34 35
20 20 21 21 21 21 22 22 23 24 25 25 26 26 27 27 28 28 29 29 30 30 30 31 31 32 32 32 32 32 33 33 34 34 34 35 35 36
22 22 23 23 23 23 23 24 25 25 25 26 27 27 27 28 28 29 30 30 31 31 32 32 32 32 33 33 34 33 34 35 36 36 36 36 37 36
23 24 25 25 25 25 25 26 26 27 27 28 28 28 29 29 29 29 30 30 31 32 33 33 33 33 34 34 35 35 35 36 36 37 37 37 38 37
25 25 25 26 26 26 27 27 28 28 28 29 29 29 30 30 30 31 32 32 33 33 33 34 34 35 36 36 36 36 37 37 37 38 38 37 37 37
26 26 26 27 27 28 28 29 28 28 29 29 30 30 30 31 31 32 32 33 34 34 34 35 35 36 37 37 38 38 38 38 38 38 39 37 37 37
27 27 27 28 28 29 29 29 29 29 30 30 31 31 32 32 32 33 33 34 34 35 36 36 37 37 37 37 37 38 38 38 38 37 38 37 36 36
29 29 29 30 30 30 30 30 30 30 31 32 32 33 33 34 34 35 35 36 36 36 37 37 37 37 37 37 37 37 38 38 38 36 36 36 36 35
30 30 31 31 31 31 31 31 31 32 32 33 33 34 35 35 36 36 37 37 37 38 37 37 37 37 37 37 37 37 37 38 37 36 34 34 34 34
32 32 33 33 33 33 33 32 32 33 33 34 34 35 35 36 37 37 37 37 37 37 37 37 37 38 38 38 37 37 36 37 37 36 35 34 34 34
34 34 34 35 35 35 35 34 34 34 35 35 35 36 36 37 38 38 38 38 37 38 38 37 37 38 38 38 37 37 37 36 36 36 35 35 35 35

GEFSNE_500_meanwind_234.txt.gz
Wind_Speed
6 6 5 6 6 7 8 9 9 10 10 10 11 11 11 12 12 13 14 14 15 15 17 18 18 18 19 20 20 21 22 22 23 23 23 23 24 25
7 7 7 8 8 8 8 9 9 9 10 10 11 11 11 12 12 13 13 14 15 16 17 18 19 20 21 21 21 22 23 24 24 24 25 25 26 27
8 8 8 8 8 9 9 9 10 10 10 10 11 12 12 13 13 14 15 15 16 17 18 19 20 21 22 23 24 24 25 25 25 26 26 27 27 28
9 9 9 9 10 10 10 10 10 11 11 12 13 13 14 15 15 16 17 17 18 19 20 21 22 23 23 24 25 25 26 26 26 27 27 28 28 29
9 9 10 11 11 11 11 11 11 12 12 13 14 14 15 16 17 17 18 19 21 22 22 22 23 24 25 25 26 26 26 27 28 28 28 29 29 30
11 11 11 11 11 11 11 12 12 13 14 14 15 16 17 17 18 19 20 21 22 23 23 24 24 25 25 26 26 27 27 27 28 29 29 30 30 31
11 11 11 12 11 12 12 13 14 14 15 16 17 18 18 19 19 20 21 22 23 24 24 24 25 25 26 26 27 27 28 28 29 29 30 30 30 31
11 11 12 12 12 13 13 14 15 16 16 17 18 19 19 19 20 21 21 22 23 24 24 24 25 25 26 26 27 28 28 29 29 29 30 30 31 31
12 12 12 13 14 14 15 15 16 17 18 19 19 19 19 20 21 22 23 24 24 24 25 25 26 26 26 27 28 28 28 29 30 30 30 31 31 32
14 14 14 14 15 15 16 17 18 18 19 20 20 20 21 22 23 24 24 25 26 26 27 26 26 27 27 28 28 29 29 29 29 30 30 31 32 32
15 16 16 16 17 17 18 18 19 20 20 21 21 22 23 24 25 25 26 26 26 27 27 27 27 27 28 28 29 29 29 29 29 30 31 31 31 32
17 17 18 19 19 20 20 20 21 21 22 22 23 23 24 25 26 27 27 27 28 28 28 28 28 28 28 29 29 30 30 30 30 31 31 32 32 32
19 19 20 21 22 22 22 22 23 23 24 24 25 25 26 27 28 28 29 29 29 29 29 29 29 30 30 29 30 31 31 32 32 32 32 33 33 33
20 21 21 22 23 23 24 24 25 25 26 26 27 27 28 28 29 30 30 30 30 30 31 31 31 31 31 31 31 32 32 33 33 33 34 34 34 34
22 22 23 23 24 25 25 26 26 27 27 28 28 29 29 29 30 30 30 30 30 31 32 33 33 33 33 33 33 33 33 33 34 34 34 34 34 34
23 23 24 25 25 26 26 27 28 29 29 29 29 29 29 29 30 30 31 31 31 32 33 33 34 34 34 34 35 34 34 35 35 35 35 36 36 35
26 26 26 27 27 28 28 28 29 29 30 29 30 30 30 31 31 32 32 33 33 33 33 34 34 34 35 35 35 35 35 36 36 36 36 36 36 36
28 28 28 29 29 29 29 30 30 30 31 31 31 31 31 32 33 33 33 34 34 35 34 34 34 34 34 35 36 36 37 37 37 37 37 37 36 36
30 31 31 32 31 31 30 31 31 32 31 32 32 32 33 33 34 34 35 36 36 35 35 35 35 35 35 35 35 36 36 36 37 37 37 37 36 36
32 33 33 32 32 32 32 32 32 32 32 33 33 33 34 35 35 36 36 37 37 36 36 36 36 36 36 36 35 35 36 37 36 36 36 36 36 36
34 34 34 34 33 33 33 33 33 34 34 35 35 35 36 37 37 37 37 37 37 37 37 37 37 37 37 37 36 36 36 36 36 36 36 36 35 35
35 35 35 35 35 35 35 35 35 36 36 36 36 37 37 38 38 38 38 38 38 38 37 37 38 37 37 36 36 37 37 37 37 36 37 37 35 34
36 36 36 36 36 36 37 37 37 37 37 38 38 38 38 38 38 38 38 38 38 37 37 37 37 37 37 37 37 37 37 37 37 37 36 36 35 34

GEFSNE_500_meanwind_240.txt.gz
Wind_Speed
6 6 6 6 7 7 8 8 9 9 10 10 10 11 12 13 13 13 13 14 15 15 16 16 18 19 19 19 20 20 21 22 22 22 23 23 24 25
7 7 7 7 7 7 7 8 9 9 10 10 10 11 12 13 13 13 14 14 15 16 16 18 19 19 20 21 21 22 22 23 23 23 23 24 24 24
7 7 7 7 7 8 8 9 9 10 10 10 11 12 12 13 14 15 15 16 16 16 17 18 19 20 21 22 22 23 23 24 24 24 24 24 25 25
8 8 8 8 9 9 9 10 10 11 11 11 11 12 12 13 14 15 16 17 17 18 18 19 20 21 21 22 23 24 24 24 25 25 25 26 26 26
9 9 9 9 9 10 10 10 11 11 11 12 12 13 13 14 15 16 17 18 18 18 19 20 21 22 23 23 24 25 25 25 26 26 27 27 27 27
9 9 9 9 10 10 10 10 11 11 12 12 13 14 15 16 16 17 18 19 19 20 21 21 23 24 24 25 25 26 26 26 27 27 28 28 29 29
9 10 10 10 11 11 11 11 12 12 13 13 14 15 16 17 18 18 19 20 20 21 22 23 24 24 25 25 26 26 26 27 27 28 29 29 29 29
11 11 11 11 12 12 12 13 13 13 14 14 15 16 17 18 19 20 21 21 22 23 23 24 25 25 26 26 26 27 27 28 28 28 29 29 30 30
13 13 13 13 13 13 13 14 15 15 15 16 17 18 19 20 21 21 22 22 23 24 24 25 26 26 26 27 27 27 28 28 28 28 28 29 29 30
14 14 15 14 14 15 15 16 17 17 18 18 19 19 20 21 22 22 23 23 24 25 26 26 27 28 28 27 28 28 29 28 28 28 29 29 29 30
15 15 15 16 16 16 17 18 19 19 20 20 21 22 22 23 23 24 25 26 26 26 27 28 28 28 28 28 29 29 29 29 29 30 30 30 30 31
16 16 17 17 17 18 19 20 21 22 22 23 23 24 24 25 26 26 27 27 27 28 29 30 30 30 29 29 30 30 30 30 31 31 32 32 32 32
18 18 18 19 19 20 21 22 23 23 24 24 25 25 26 27 28 29 29 29 30 30 31 31 31 31 31 31 31 31 31 31 32 32 32 33 33 33
19 19 20 20 21 22 22 23 24 24 25 25 26 27 28 29 30 31 31 32 32 32 32 32 32 33 33 32 32 31 31 31 32 32 32 32 32 32
21 22 22 23 23 24 25 25 26 26 27 27 28 29 29 30 31 32 32 32 33 33 33 33 33 33 33 33 33 32 32 32 32 32 32 32 33 33
23 24 24 25 26 26 27 28 28 29 29 29 30 31 32 32 33 33 33 33 34 34 34 34 33 33 33 33 34 33 32 32 32 32 33 33 34 34
26 26 27 27 28 29 30 30 30 30 31 31 32 32 33 33 34 34 34 35 35 35 35 34 34 34 34 34 34 33 33 32 33 33 33 33 34 35
28 28 29 29 30 31 31 31 31 32 32 33 33 34 34 34 35 35 35 35 35 35 35 34 34 34 34 34 34 34 34 34 34 34 35 35 35 35
30 30 31 31 31 32 33 33 33 33 33 34 34 34 35 35 35 36 36 35 35 35 34 35 35 34 34 34 34 35 35 35 35 35 36 36 36 35
31 32 32 32 33 33 33 34 34 34 35 35 36 35 36 36 36 36 35 35 35 35 35 35 35 35 35 35 35 35 36 36 36 36 36 36 36 36
32 33 33 34 34 34 34 34 35 35 36 37 37 36 37 37 37 37 37 37 36 36 37 37 36 36 36 36 36 36 37 38 37 36 36 36 35 35
33 34 35 35 36 36 36 36 36 36 37 37 37 37 37 37 37 38 38 38 38 38 38 38 37 37 36 36 37 37 37 37 37 36 36 36 35 34
35 35 36 37 37 37 37 37 37 38 38 38 38 38 38 38 39 39 38 38 39 39 39 38 37 36 35 36 36 37 37 37 36 36 35 35 35 34

GEFSNE_500_meanwind_246.txt.gz
Wind_Speed
9 9 9 8 8 8 8 9 9 10 9 10 10 10 10 10 11 12 13 13 14 14 15 16 17 18 18 19 19 20 20 21 21 21 21 22 22 23
9 9 9 9 8 9 9 9 9 9 9 9 10 10 11 11 12 12 13 14 14 15 16 17 18 18 19 19 20 20 21 21 21 22 23 23 24 24
9 9 8 9 9 9 9 10 10 10 10 10 10 11 12 12 13 14 14 15 15 16 17 18 19 19 19 20 21 22 22 22 23 23 24 24 25 25
9 9 9 9 9 9 10 10 10 11 11 11 11 12 13 13 14 15 15 15 16 17 18 19 19 19 20 21 22 23 23 23 23 24 25 25 26 27
10 10 9 10 10 10 10 10 11 11 12 12 12 13 13 14 15 15 16 17 18 18 19 19 20 21 21 22 23 23 23 24 24 25 26 27 27 28
11 11 11 11 11 11 11 11 11 12 12 13 13 14 14 15 15 16 17 17 18 19 20 21 21 22 23 23 23 23 24 25 26 26 27 28 29 29
12 12 12 12 12 12 13 13 13 13 13 13 14 15 15 16 16 17 18 19 20 21 22 22 23 24 24 24 25 25 26 26 27 27 28 28 28 29
12 13 13 14 14 14 13 13 14 14 14 15 15 16 16 17 18 19 20 21 21 22 24 24 24 24 25 25 26 27 27 28 28 28 29 28 28 28
14 14 15 15 15 15 15 14 14 15 16 16 17 17 18 18 19 21 21 22 23 24 24 24 25 26 26 25 26 27 27 27 28 28 28 28 28 29
15 16 16 16 15 15 16 15 16 16 17 18 19 19 20 20 21 22 23 24 25 26 26 26 26 27 26 26 27 28 29 29 29 29 29 29 29 29
17 17 17 17 17 17 17 17 18 18 19 19 19 20 21 22 23 24 24 25 26 27 27 28 28 27 27 28 29 30 30 31 31 30 30 30 30 30
18 17 17 18 18 18 19 19 19 20 20 20 21 22 22 24 24 25 26 27 28 28 28 29 29 29 29 29 30 31 31 31 31 31 30 30 30 30
19 19 19 19 20 20 21 21 21 21 21 22 23 23 24 25 26 27 28 29 29 29 29 30 30 30 30 31 31 31 32 32 32 31 31 31 31 30
21 21 21 21 21 22 22 22 23 23 23 24 25 26 26 27 28 29 29 30 31 31 31 31 32 32 32 32 32 32 33 33 32 32 32 32 32 32
22 23 23 23 23 24 24 24 24 25 25 26 27 28 28 29 30 30 31 31 32 32 33 32 32 33 33 33 34 34 33 33 33 33 33 33 33 33
24 24 25 25 25 25 26 26 27 28 28 28 29 30 30 30 31 32 32 32 33 33 33 33 33 34 34 35 35 35 35 34 34 34 34 34 34 34
26 26 26 27 27 27 28 29 29 29 30 31 31 32 32 32 33 33 33 33 33 33 33 34 35 35 35 36 36 36 36 35 35 34 35 35 35 35
28 28 28 29 29 29 30 31 31 32 32 33 33 33 33 34 34 34 35 35 35 35 35 35 36 36 36 36 37 37 36 36 36 36 35 35 35 35
30 31 31 31 31 32 32 32 33 34 34 35 35 35 35 35 35 35 35 36 36 36 36 37 37 38 38 37 36 37 37 36 36 36 36 35 35 35
32 32 32 33 33 34 34 34 35 36 36 37 37 36 36 36 36 36 37 37 37 38 38 38 38 39 39 38 37 37 38 37 37 36 36 36 35 35
33 34 34 34 35 35 35 36 37 37 37 38 37 37 38 38 38 38 38 39 39 39 39 39 39 40 40 39 39 38 38 38 37 37 36 36 35 35
35 35 35 36 36 37 38 39 39 39 39 38 38 38 38 39 38 39 39 39 40 40 40 40 40 41 40 40 39 38 37 37 37 37 37 36 35 34
37 37 37 38 39 39 40 41 41 40 40 39 39 39 39 39 39 39 39 39 40 40 40 40 40 40 40 39 39 38 38 37 36 35 35 35 34 34

GEFSNE_500_meanwind_252.txt.gz
Wind_Speed
6 6 6 7 7 8 9 8 8 9 10 10 10 10 10 10 10 11 12 13 14 14 15 16 17 17 16 16 16 17 18 18 19 20 21 22 23 23
6 6 6 6 7 7 8 8 9 9 10 10 10 10 9 10 11 11 12 13 14 15 15 16 16 17 17 17 17 18 19 19 21 22 23 23 24 23
6 6 6 7 7 7 8 8 9 9 9 10 11 11 11 11 11 12 12 13 13 14 15 16 17 17 18 18 19 20 21 22 23 23 24 25 25 25
7 7 7 7 8 8 8 8 9 10 10 11 12 12 13 13 13 13 14 14 15 16 16 17 17 18 18 19 20 21 22 23 24 25 25 26 26 26
8 8 8 8 9 8 9 9 10 10 11 11 12 13 13 14 14 15 15 15 15 16 17 17 18 18 19 20 21 22 23 24 25 25 26 26 27 27
10 10 10 10 9 10 10 11 11 11 12 12 13 13 14 14 15 15 15 16 16 16 17 18 18 19 20 21 22 23 24 24 25 26 27 28 28 28
11 11 11 11 11 11 12 12 12 12 13 13 14 14 14 15 15 15 16 16 17 17 18 19 20 20 22 23 23 23 24 25 26 27 28 28 28 28
11 12 12 12 12 13 13 13 14 14 14 14 15 15 15 15 15 16 16 17 18 18 19 20 21 22 23 23 24 24 25 26 26 27 28 28 28 28
13 13 13 14 14 14 15 15 15 15 15 15 15 16 16 16 17 17 18 19 19 20 21 22 23 24 24 24 24 25 26 26 26 27 27 28 28 29
14 14 14 15 15 15 15 15 15 16 16 17 17 17 17 17 18 19 20 21 21 22 23 24 25 25 25 26 27 27 27 27 27 28 28 29 29 30
16 16 16 16 16 16 16 16 17 17 17 18 18 18 19 20 20 21 22 23 23 24 25 26 26 27 27 27 28 28 28 28 28 29 29 29 30 30
18 18 18 18 17 17 17 17 18 18 19 19 19 20 20 21 22 23 24 25 25 26 28 28 28 28 28 28 28 29 29 30 30 30 31 31 31 31
19 20 20 19 19 19 19 20 20 20 20 21 22 22 23 23 24 25 26 27 28 28 29 30 29 29 29 30 30 31 31 31 32 32 32 32 32 32
21 21 22 22 22 22 22 22 22 23 23 24 24 24 25 26 27 27 28 29 30 30 30 30 31 31 31 31 32 32 32 33 33 33 33 33 33 34
23 23 23 24 24 24 24 25 25 25 25 26 26 26 27 28 29 29 30 31 31 32 32 33 33 32 32 32 33 34 34 34 35 35 34 35 35 35
25 25 25 26 26 26 26 27 27 27 27 27 28 29 30 30 30 31 32 33 33 34 34 35 34 34 34 34 34 34 35 35 35 36 36 36 37 37
27 27 27 27 27 28 28 29 29 29 30 30 31 31 32 33 34 34 34 35 35 35 36 36 36 36 35 35 35 36 36 36 37 38 38 38 38 38
29 29 30 30 29 30 30 31 31 31 32 32 33 34 34 35 35 35 35 35 36 36 36 36 36 36 36 37 37 37 38 39 39 39 39 39 38 38
30 31 31 32 32 32 32 33 33 33 34 35 35 36 36 36 36 36 37 37 37 36 37 37 37 37 37 38 38 39 39 40 40 40 40 40 38 37
31 32 32 33 33 33 34 34 35 36 36 37 37 37 37 37 37 38 38 38 38 37 37 38 38 39 39 39 39 40 41 41 41 41 40 39 38 37
33 33 33 33 34 34 35 35 36 37 38 38 38 39 39 39 39 39 39 39 39 39 39 39 40 41 41 41 40 40 40 41 41 40 40 39 37 37
34 34 35 34 35 36 36 36 36 37 38 38 39 40 41 41 41 41 40 40 40 40 40 41 41 42 42 42 41 40 39 39 39 39 39 39 38 37
35 35 36 37 37 37 37 38 38 38 39 39 40 41 42 41 41 41 41 41 41 41 42 42 42 42 41 41 40 39 38 38 39 38 38 38 38 38